View from above orbital plane
|
View from above satellite
|
Ground track
|
The orbit data is extracted from the following two-line orbital elements,
1 20580U 90037B 21057.46000455 .00000693 00000-0 31053-4 0 9997
2 20580 28.4701 79.4514 0002461 311.1276 194.4847 15.09566411494308
Epoch (UTC): | 26 February 2021 11:02:24 |
Eccentricity: | 0.0002461 |
inclination: | 28.4701° |
perigee height: | 536 km |
apogee height: | 539 km |
right ascension of ascending node: | 79.4514° |
argument of perigee: | 311.1276° |
revolutions per day: | 15.09566411 |
mean anomaly at epoch: | 194.4847° |
orbit number at epoch: | 49430 |
The dashed part of the orbit path shows where the satellite is in the earth's shadow,
|
|